This is the latest recevied weather packets stored in our database for station/object KB1FFS. If no packets are shown the sender has not sent any weather packets the latest 10 day(s).
| Time | Temp. | Humidity | Pressure | Rain* | Wind** | Luminosity | Snow |
|---|---|---|---|---|---|---|---|
| 1777599601 | 17.22° C | 69% | 1015.9 hPa | 0 mm | - | 0 W/m² | - |
| 1777599298 | 17.22° C | 68% | 1015.8 hPa | 0 mm | - | 0 W/m² | - |
| 1777598994 | 17.22° C | 68% | 1015.6 hPa | 0 mm | - | 0 W/m² | - |
| 1777598691 | 17.22° C | 69% | 1015.6 hPa | 0 mm | - | 0 W/m² | - |
| 1777598387 | 17.22° C | 69% | 1015.6 hPa | 0 mm | - | 0 W/m² | - |
| 1777598086 | 17.22° C | 69% | 1015.6 hPa | 0 mm | - | 0 W/m² | - |
| 1777597785 | 17.22° C | 70% | 1015.4 hPa | 0 mm | - | 1 W/m² | - |
| 1777597480 | 17.22° C | 70% | 1015.2 hPa | 0 mm | - | 1 W/m² | - |
| 1777597176 | 17.22° C | 70% | 1015.5 hPa | 0 mm | - | 3 W/m² | - |
| 1777596872 | 17.22° C | 70% | 1015.4 hPa | 0 mm | - | 4 W/m² | - |
| 1777596568 | 17.22° C | 70% | 1015.6 hPa | 0 mm | - | 5 W/m² | - |
| 1777596265 | 17.22° C | 71% | 1015.4 hPa | 0 mm | - | 6 W/m² | - |
| 1777595963 | 17.22° C | 72% | 1015.3 hPa | 0 mm | - | 13 W/m² | - |
| 1777595663 | 17.22° C | 73% | 1015.4 hPa | 0 mm | - | 8 W/m² | - |
| 1777595358 | 17.22° C | 72% | 1015.4 hPa | 0 mm | - | 7 W/m² | - |
| 1777595055 | 17.22° C | 72% | 1015.3 hPa | 0 mm | - | 6 W/m² | - |
| 1777594752 | 17.22° C | 72% | 1015.5 hPa | 0 mm | - | 9 W/m² | - |
| 1777594448 | 17.22° C | 72% | 1015.7 hPa | 0 mm | - | 13 W/m² | - |
| 1777594143 | 17.22° C | 73% | 1015.4 hPa | 0 mm | - | 15 W/m² | - |
| 1777593840 | 17.22° C | 72% | 1015.4 hPa | 0 mm | - | 9 W/m² | - |
| 1777593537 | 17.22° C | 71% | 1015.3 hPa | 0 mm | - | 14 W/m² | - |
| 1777593236 | 17.22° C | 71% | 1015.3 hPa | 0 mm | - | 12 W/m² | - |
| 1777592936 | 17.22° C | 71% | 1015.3 hPa | 0 mm | - | 14 W/m² | - |
| 1777592631 | 17.22° C | 72% | 1015.4 hPa | 0 mm | - | 13 W/m² | - |
| 1777592328 | 17.22° C | 71% | 1015 hPa | 0 mm | - | 16 W/m² | - |
* Rain latest hour (hover to see other rain measurements)
** Current wind speed in m/s (hover to see current wind gust speed)